[[{"header":{"parameterUnit":"m.s-1","parameterCategory":1,"la1":30.2991,"la2":30.254,"lo1":-89.0895,"lo2":-89.0444,"dy":0.0017,"dx":0.0017,"nx":28,"ny":28,"refTime":"2025-08-22T03:00:00:Z","depth":0,"parameterNumber":2,"parameterNumberName":"U-component_of_WINDS"},"data":[0,0,0,0,0,0,0,0,0,0,0,0,0,0,0,0,0,0,0,0,0,0,0,0,0,0,0,0,0,0,0,0,0,0,0,0,0,0,0,0,0,0,0,0,0,0,0,0,0,0,0,0,0,0,0,0,0,0,0.3224,0.3225,0,0.3278,0.3279,0.3279,0.3324,0.3324,0.3325,0.3325,0.3379,0.338,0.3381,0,0,0,0,0,0,0,0,0,0,0,0,0,0.3157,0.3158,0.3224,0.3225,0.3225,0.3278,0.3279,0.3279,0.3324,0.3324,0.3325,0.3325,0.3378,0.338,0.3381,0,0,0,0,0,0,0,0,0,0,0,0,0,0.3196,0.3158,0.3224,0.3254,0.3257,0.3278,0.3279,0.328,0.3324,0.3324,0.3325,0.3326,0.3378,0.3379,0.3381,0.3376,0,0,0.3385,0.3386,0,0,0,0,0,0,0,0,0.3193,0.3198,0.3249,0.3252,0.3255,0.3295,0.3275,0.3312,0.3323,0.3298,0.3325,0.3326,0.335,0.3354,0.3363,0.3378,0.3381,0.3386,0.3386,0.3387,0.3387,0,0,0,0,0,0,0,0.3191,0.3196,0.3245,0.3249,0.3254,0.3264,0.327,0.3282,0.332,0.3301,0.3304,0.331,0.3352,0.3361,0.3364,0.3381,0.3386,0.3387,0.3388,0.3388,0.3395,0.3394,0,0,0,0,0,0,0.3184,0.3194,0.3244,0.3247,0.3226,0.3264,0.3272,0.3282,0.332,0.3326,0.3309,0.3312,0.3358,0.3362,0.3366,0.3363,0.3387,0.3388,0.3389,0.3396,0.3395,0.3394,0,0,0,0,0,0,0.3182,0.3188,0.3242,0.3221,0.3229,0.3265,0.3276,0.3282,0.3291,0.3326,0.3333,0.3311,0.3359,0.3364,0.3373,0.3365,0.3389,0.339,0.3396,0.3395,0.3394,0.3356,0,0,0,0,0,0,0.318,0.3187,0.3186,0.3221,0.323,0.3248,0.3275,0.3283,0.3294,0.3298,0.333,0.3336,0.336,0.3371,0.3374,0.3368,0.3392,0.3397,0.3396,0.3395,0.3358,0.3353,0.335,0,0,0,0,0,0.3177,0.3173,0.3186,0.3192,0.323,0.3248,0.3253,0.3281,0.3293,0.3292,0.3314,0.3335,0.3365,0.3371,0.3376,0.3369,0.3398,0.3396,0.3395,0.336,0.3354,0.335,0,0,0,0,0,0,0.3136,0.3178,0.3193,0.32,0.322,0.3255,0.3255,0.3274,0.3291,0.3294,0.3327,0.3334,0.3339,0.3355,0.3361,0.3366,0.3384,0.3383,0.3356,0.3351,0.3347,0.3344,0.3393,0,0,0,0,0,0.3127,0.3139,0.3175,0.3178,0.3187,0.3219,0.3228,0.3248,0.327,0.3278,0.3301,0.3321,0.3335,0.3344,0.3359,0.336,0.3367,0.3357,0.3353,0.335,0.3349,0.3351,0.3347,0.3389,0.3389,0.3389,0,0,0.311,0.3135,0.314,0.317,0.3188,0.3199,0.3226,0.3237,0.3245,0.328,0.329,0.3307,0.3331,0.3336,0.334,0.335,0.3339,0.3348,0.3345,0.3346,0.3348,0.3344,0.3341,0.3388,0.3388,0.3388,0,0,0.3085,0.3105,0.3109,0.3126,0.3153,0.3174,0.3175,0.3207,0.322,0.3231,0.3257,0.3267,0.329,0.3307,0.3318,0.3297,0.3316,0.33,0.3279,0.328,0.3277,0.3274,0.3267,0.3264,0.3299,0.3299,0.3299,0,0.3061,0.3079,0.3108,0.3117,0.3129,0.3161,0.3165,0.318,0.321,0.3217,0.3228,0.3258,0.3276,0.3285,0.328,0.3288,0.329,0.3298,0.3275,0.3273,0.3271,0.3264,0.3261,0.3297,0.3297,0.3297,0.3298,0,0.3047,0.3059,0.3059,0.3088,0.31,0.3106,0.3135,0.3143,0.3161,0.3181,0.3191,0.3214,0.3234,0.3237,0.3255,0.3248,0.3254,0.3269,0.3288,0.3264,0.3258,0.3256,0.3294,0.3295,0.3295,0.3296,0,0,0.2999,0.3043,0.3043,0.3056,0.3087,0.3097,0.3103,0.3123,0.313,0.3148,0.3155,0.3173,0.3188,0.32,0.3219,0.322,0.3202,0.3236,0.3237,0.3229,0.3196,0.3185,0.3182,0.3214,0.3214,0.3214,0.3194,0,0.298,0.2996,0.3022,0.3028,0.304,0.3069,0.3075,0.3094,0.3112,0.3124,0.3143,0.3156,0.3173,0.3181,0.3183,0.3204,0.3196,0.3205,0.3221,0.3221,0.3215,0.3179,0.3168,0.3148,0.3192,0.3192,0.3192,0,0.296,0.2977,0.2985,0.3015,0.3021,0.3026,0.3046,0.3056,0.3078,0.3091,0.3104,0.3125,0.3133,0.3149,0.316,0.3166,0.3173,0.3184,0.3184,0.3188,0.3206,0.3182,0.3143,0.314,0.3189,0.3189,0.3189,0,0.2925,0.295,0.2958,0.2968,0.3003,0.3006,0.302,0.3043,0.3053,0.3069,0.3076,0.3093,0.3102,0.3114,0.3139,0.3148,0.3147,0.3166,0.3158,0.3157,0.3157,0.3157,0.312,0.316,0.316,0.316,0.316,0,0.2901,0.2905,0.2943,0.2948,0.2953,0.2982,0.2985,0.3002,0.3022,0.303,0.3056,0.3063,0.3094,0.3104,0.3123,0.3129,0.3133,0.3143,0.3149,0.3142,0.3141,0.3148,0.315,0.316,0.316,0.316,0.316,0,0.2864,0.2889,0.29,0.2932,0.2939,0.2942,0.2968,0.2974,0.2992,0.3002,0.3006,0.3035,0.3049,0.3074,0.3094,0.3107,0.3109,0.3117,0.3102,0.3105,0.3096,0.3097,0.3063,0.306,0.3101,0.3101,0.3101,0,0.2847,0.2851,0.2883,0.289,0.2904,0.2916,0.2926,0.2953,0.2963,0.2987,0.2989,0.3005,0.3019,0.3038,0.3061,0.3076,0.3085,0.3072,0.3088,0.3081,0.3086,0.3086,0.3086,0.3069,0.3068,0.3068,0.3068,0,0.2816,0.2828,0.2842,0.286,0.2872,0.2887,0.2904,0.2908,0.2939,0.2948,0.2963,0.2973,0.2993,0.3008,0.3026,0.304,0.3059,0.3062,0.3061,0.3055,0.3046,0.3051,0.3093,0.3063,0.3064,0.3064,0.3064,0.3064,0.279,0.2794,0.2817,0.2831,0.2847,0.2861,0.2868,0.2887,0.29,0.2919,0.2934,0.2946,0.2967,0.2993,0.3006,0.3015,0.3024,0.3023,0.3023,0.3022,0.302,0.3044,0.3018,0.3019,0.3019,0.3019,0.3019,0,0.276,0.2776,0.2789,0.2811,0.2822,0.2839,0.2857,0.2865,0.2877,0.2894,0.2907,0.2922,0.2936,0.2959,0.2975,0.2978,0.2987,0.2981,0.2982,0.2985,0.301,0.301,0.2974,0.2974,0.2974,0.2974,0.2974,0.2974,0.2746,0.2755,0.2769,0.2785,0.2801,0.2814,0.2823,0.2836,0.2851,0.2867,0.2879,0.2894,0.2913,0.293,0.2943,0.2949,0.2954,0.2946,0.2955,0.2979,0.2983,0.2987,0.2987,0.2946,0.2946,0.2928,0.2928,0.2928]},{"header":{"parameterUnit":"m.s-1","parameterCategory":1,"la1":30.2991,"la2":30.254,"lo1":-89.0895,"lo2":-89.0444,"dy":0.0017,"dx":0.0017,"nx":28,"ny":28,"refTime":"2025-08-22T03:00:00:Z","depth":0,"parameterNumber":3,"parameterNumberName":"V-component_of_WINDS"},"data":[0,0,0,0,0,0,0,0,0,0,0,0,0,0,0,0,0,0,0,0,0,0,0,0,0,0,0,0,0,0,0,0,0,0,0,0,0,0,0,0,0,0,0,0,0,0,0,0,0,0,0,0,0,0,0,0,0,0,0.8516,0.8516,0,0.8557,0.8558,0.8558,0.8586,0.8586,0.8586,0.8586,0.8629,0.863,0.8631,0,0,0,0,0,0,0,0,0,0,0,0,0,0.8457,0.8458,0.8516,0.8516,0.8517,0.8557,0.8558,0.8559,0.8586,0.8586,0.8586,0.8586,0.8629,0.863,0.8631,0,0,0,0,0,0,0,0,0,0,0,0,0,0.8489,0.8458,0.8516,0.8535,0.8537,0.8557,0.8558,0.8559,0.8586,0.8586,0.8586,0.8586,0.8629,0.863,0.8631,0.8635,0,0,0.8636,0.8637,0,0,0,0,0,0,0,0,0.8487,0.8491,0.8532,0.8534,0.8536,0.8567,0.8553,0.8584,0.8586,0.8567,0.8586,0.8587,0.8608,0.8611,0.8619,0.8637,0.8639,0.8636,0.8637,0.8638,0.8638,0,0,0,0,0,0,0,0.8485,0.849,0.8532,0.8532,0.8535,0.8541,0.8546,0.8559,0.8586,0.8569,0.8571,0.8576,0.861,0.8617,0.862,0.864,0.8636,0.8637,0.8638,0.8639,0.8659,0.8659,0,0,0,0,0,0,0.848,0.8488,0.8531,0.8534,0.8512,0.8542,0.8547,0.8557,0.8586,0.859,0.8575,0.8577,0.8615,0.8618,0.8621,0.8625,0.8638,0.8639,0.864,0.8659,0.8659,0.8659,0,0,0,0,0,0,0.8478,0.8483,0.8529,0.8511,0.8517,0.8543,0.8553,0.8557,0.8565,0.8591,0.8595,0.8578,0.8615,0.8619,0.8631,0.8627,0.864,0.8641,0.866,0.8659,0.8659,0.8634,0,0,0,0,0,0,0.8477,0.8483,0.8486,0.8511,0.8518,0.8539,0.8553,0.8558,0.8568,0.857,0.8595,0.8599,0.8615,0.8628,0.8632,0.8629,0.8642,0.866,0.8659,0.8659,0.8635,0.8633,0.8631,0,0,0,0,0,0.8474,0.8478,0.8486,0.8491,0.8522,0.8538,0.8542,0.8561,0.8567,0.8569,0.8585,0.8598,0.8627,0.8629,0.8634,0.8631,0.866,0.866,0.8659,0.8636,0.8633,0.8631,0,0,0,0,0,0,0.8453,0.8482,0.8491,0.8503,0.8517,0.8543,0.8547,0.8558,0.8572,0.8574,0.8596,0.8601,0.8609,0.8622,0.8624,0.8634,0.8645,0.8645,0.8626,0.8624,0.8621,0.8618,0.8643,0,0,0,0,0,0.8449,0.846,0.8485,0.8493,0.85,0.8521,0.853,0.8542,0.8559,0.8566,0.8582,0.8598,0.861,0.8617,0.863,0.8637,0.8641,0.8637,0.8635,0.8633,0.8632,0.8633,0.8631,0.8656,0.8656,0.8656,0,0,0.8442,0.8459,0.8466,0.8489,0.8502,0.8512,0.8527,0.8538,0.8545,0.8567,0.8578,0.859,0.8609,0.8617,0.8621,0.8627,0.8626,0.8632,0.863,0.8631,0.8632,0.863,0.8628,0.8655,0.8656,0.8656,0,0,0.8435,0.845,0.8456,0.8468,0.8487,0.8501,0.8502,0.8525,0.8534,0.8545,0.856,0.8569,0.859,0.8601,0.861,0.8601,0.8613,0.8605,0.8592,0.8593,0.8591,0.8589,0.8584,0.8582,0.8604,0.8604,0.8604,0,0.8424,0.844,0.8458,0.8467,0.8475,0.8494,0.85,0.8511,0.8533,0.8538,0.8544,0.8568,0.8583,0.8592,0.8589,0.8596,0.8597,0.8602,0.859,0.8588,0.8587,0.8582,0.858,0.8603,0.8603,0.8603,0.8603,0,0.8424,0.8434,0.8437,0.8456,0.8465,0.8473,0.8491,0.8497,0.8508,0.852,0.8529,0.8546,0.8561,0.8564,0.8575,0.8573,0.8576,0.8586,0.8597,0.8583,0.8578,0.8577,0.8601,0.8602,0.8602,0.8602,0,0,0.8407,0.8433,0.8434,0.8441,0.8461,0.8469,0.8475,0.8489,0.8493,0.8506,0.8511,0.8526,0.8534,0.8543,0.8556,0.8557,0.8545,0.8566,0.8566,0.856,0.854,0.8532,0.853,0.8553,0.8552,0.8552,0.8538,0,0.8401,0.8414,0.8428,0.8435,0.8443,0.8459,0.8464,0.8476,0.8487,0.8495,0.8507,0.8516,0.8527,0.8532,0.8533,0.8546,0.8541,0.8547,0.8556,0.8556,0.855,0.8528,0.852,0.8506,0.8537,0.8536,0.8536,0,0.8397,0.8407,0.8415,0.843,0.8434,0.8439,0.845,0.8457,0.847,0.8477,0.8486,0.8498,0.8504,0.8513,0.852,0.8523,0.8527,0.8533,0.8533,0.8534,0.8545,0.8527,0.8503,0.85,0.8534,0.8534,0.8535,0,0.8381,0.8397,0.8402,0.8408,0.8428,0.8429,0.8437,0.845,0.8456,0.8466,0.8469,0.8479,0.8485,0.8492,0.8506,0.8512,0.8509,0.8521,0.8514,0.8514,0.8514,0.8513,0.8488,0.8518,0.8518,0.8518,0.8518,0,0.8373,0.8376,0.8395,0.8398,0.8401,0.8417,0.8419,0.8429,0.8439,0.8443,0.8458,0.8461,0.848,0.8485,0.8496,0.8498,0.8501,0.8505,0.8508,0.8504,0.8503,0.8506,0.8507,0.8517,0.8517,0.8517,0.8518,0,0.8356,0.8369,0.8376,0.8391,0.8395,0.8396,0.841,0.8412,0.8422,0.8427,0.8429,0.8445,0.8451,0.8465,0.8476,0.8483,0.8481,0.8487,0.8477,0.8478,0.847,0.847,0.8446,0.8442,0.8475,0.8475,0.8474,0,0.835,0.8352,0.8367,0.837,0.8377,0.8383,0.8387,0.8402,0.8406,0.8418,0.8418,0.8425,0.8432,0.844,0.8452,0.8459,0.8465,0.8455,0.8466,0.846,0.8462,0.8461,0.846,0.8453,0.8453,0.8452,0.8452,0,0.8336,0.8341,0.8348,0.8355,0.836,0.8367,0.8374,0.8376,0.8391,0.8395,0.8401,0.8405,0.8414,0.842,0.8428,0.8435,0.8445,0.8448,0.8447,0.8442,0.8435,0.8436,0.8469,0.8449,0.8449,0.845,0.845,0.845,0.8324,0.8325,0.8334,0.834,0.8346,0.8351,0.8354,0.8362,0.8367,0.8375,0.8382,0.8386,0.8395,0.8407,0.8413,0.8415,0.8421,0.8419,0.8418,0.8417,0.8414,0.8435,0.8417,0.8417,0.8417,0.8417,0.8417,0,0.8309,0.8315,0.8319,0.8328,0.8331,0.8339,0.8346,0.8349,0.8352,0.8359,0.8363,0.8368,0.8372,0.8383,0.8388,0.8387,0.8392,0.8388,0.8388,0.8389,0.841,0.841,0.8384,0.8384,0.8384,0.8384,0.8384,0.8384,0.8302,0.8304,0.8309,0.8312,0.8318,0.8321,0.8324,0.8329,0.8334,0.8337,0.8341,0.8347,0.8354,0.8359,0.8363,0.8366,0.8366,0.8361,0.8365,0.8385,0.8388,0.8391,0.8391,0.8361,0.8361,0.8343,0.8343,0.8342]}]]